Weather History for McGuire AFB, NJ

Change the Weather History Date:

Sunday, March 10, 2013

  Actual Average Record
Temperature  
Mean Temperature 40 °F -  
Max Temperature 54 °F 47 °F 75 °F (2006)
Min Temperature 26 °F 27 °F 15 °F (2005)
Degree Days  
Heating Degree Days 25    
Moisture  
Dew Point 30 °F    
Average Humidity 75    
Maximum Humidity 94    
Minimum Humidity 42    
Precipitation  
Precipitation 0.00 in - - ()
Sea Level Pressure  
Sea Level Pressure 30.32 in    
Wind  
Wind Speed 3 mph (East)    
Max Wind Speed 13 mph    
Max Gust Speed -    
Visibility 10 miles    
Events      
Averages and records for this station are not official NWS values.
T = Trace of Precipitation, MM = Missing Value Source: NWS Daily Summary

Daily Weather History Graph

Daily Weather History Graph

Search for Another Location

Airport:

Trip Planner

Search our weather history database for the weather conditions in past years. The results will help you decide how hot, cold, wet, or windy it might be!

Date:

Astronomy

Mar. 10, 2013 Rise Set
Actual Time 7:17 AM EDT 7:00 PM EDT
Civil Twilight 6:50 AM EDT 7:27 PM EDT
Nautical Twilight 6:19 AM EDT 7:58 PM EDT
Astronomical Twilight 5:47 AM EDT 8:30 PM EDT
Moon 6:16 AM EDT (3/10) 6:05 PM EDT (3/10)
Length of Visible Light 12h 36m
Length of Day
11h 42m
Waning Crescent, 2% of the Moon is Illuminated
Mar 10
Waning Crescent
Mar 11
New
Mar 19
First Quarter
Mar 27
Full
Apr 3
Last Quarter

Hourly Weather History & Observations

Time (EDT) Temp. Windchill Dew Point Humidity Pressure Visibility Wind Dir Wind Speed Gust Speed Precip Events Conditions
12:55 AM 28.9 °F - 22.8 °F 78% 30.31 in 10.0 mi Calm Calm - N/A   Clear
1:55 AM 27.1 °F - 22.5 °F 83% 30.31 in 10.0 mi Calm Calm - N/A   Clear
3:55 AM 28.4 °F - 23.4 °F 81% 30.30 in 10.0 mi Calm Calm - N/A   Clear
4:55 AM 28.2 °F - 24.6 °F 86% 30.32 in 10.0 mi Calm Calm - N/A   Clear
5:55 AM 27.0 °F - 24.3 °F 90% 30.32 in 10.0 mi Calm Calm - N/A   Clear
6:55 AM 26.4 °F - 23.7 °F 90% 30.34 in 10.0 mi Calm Calm - N/A   Clear
7:55 AM 26.8 °F 21.4 °F 24.1 °F 90% 30.35 in 10.0 mi NE 4.6 mph - N/A   Clear
8:55 AM 36.1 °F 32.3 °F 33.8 °F 91% 30.35 in 10.0 mi NE 4.6 mph - N/A   Clear
9:55 AM 41.5 °F 37.8 °F 34.9 °F 77% 30.37 in 10.0 mi ENE 5.8 mph - N/A   Clear
10:55 AM 45.7 °F 41.5 °F 34.5 °F 65% 30.36 in 10.0 mi NE 8.1 mph - N/A   Clear
11:55 AM 48.6 °F - 33.6 °F 56% 30.35 in 10.0 mi NE 8.1 mph - N/A   Mostly Cloudy
12:55 PM 50.2 °F - 32.7 °F 51% 30.35 in 10.0 mi NNE 3.5 mph - N/A   Partly Cloudy
1:55 PM 52.9 °F - 32.7 °F 46% 30.32 in 10.0 mi Variable 4.6 mph - N/A   Clear
2:55 PM 54.5 °F - 31.8 °F 42% 30.30 in 10.0 mi SE 6.9 mph - N/A   Mostly Cloudy
3:55 PM 53.6 °F - 34.2 °F 48% 30.29 in 10.0 mi East 10.4 mph - N/A   Clear
4:55 PM 50.4 °F - 34.7 °F 55% 30.28 in 10.0 mi East 11.5 mph - N/A   Clear
5:55 PM 46.6 °F - 33.4 °F 60% 30.28 in 10.0 mi SE 12.7 mph - N/A   Clear
6:55 PM 41.2 °F 36.0 °F 32.7 °F 72% 30.31 in 10.0 mi ESE 8.1 mph - N/A   Clear
7:55 PM 37.8 °F 30.7 °F 32.7 °F 82% 30.30 in 10.0 mi ESE 10.4 mph - N/A   Mostly Cloudy
8:55 PM 35.6 °F 30.7 °F 32.2 °F 87% 30.32 in 10.0 mi SE 5.8 mph - N/A   Clear
9:55 PM 34.3 °F 29.2 °F 31.6 °F 90% 30.30 in 10.0 mi ESE 5.8 mph - N/A   Overcast
10:55 PM 34.3 °F - 32.2 °F 92% 30.31 in 10.0 mi Calm Calm - N/A   Overcast
11:55 PM 33.1 °F 30.0 °F 31.3 °F 93% 30.31 in 10.0 mi SSE 3.5 mph - N/A   Clear
12:55 AM 31.6 °F - 30.2 °F 94% 30.29 in 10.0 mi Calm Calm - N/A   Mostly Cloudy